N5CSU Weather Reports


Display with metric or nautical units.
time (UTC)temp
F
wind
direction
speed
MPH
gust
MPH
rain 1hr
in
rain 24hr
in
rain mn
in
humidity
%
barometer
mb
20260510102012 69 170 1.0 2.0 0.00 0.00 0.00 81 1014.4
20260510101509 69 182 0.0 0.0 0.00 0.00 0.00 80 1014.1
20260510101008 69 173 0.0 0.0 0.00 0.00 0.00 80 1013.7
20260510100504 70 137 1.0 2.0 0.00 0.00 0.00 78 1013.5
20260510100001 70 35 1.0 2.0 0.00 0.00 0.00 78 1013.9
20260510095456 71 197 0.0 1.0 0.00 0.00 0.00 77 1013.9
20260510094955 71 46 1.0 2.0 0.00 0.00 0.00 76 1014.2
20260510094450 72 188 0.0 1.0 0.00 0.00 0.00 76 1014.3
20260510093947 73 192 0.0 0.0 0.00 0.00 0.00 78 1014.3
20260510093442 74 304 1.0 2.0 0.00 0.00 0.00 83 1014.2
20260510092939 75 158 1.0 1.0 0.00 0.00 0.00 90 1013.8
20260510092437 75 146 0.0 1.0 0.00 0.00 0.00 90 1013.7
20260510091936 75 50 1.0 2.0 0.00 0.00 0.00 90 1013.2
20260510091433 75 146 0.0 0.0 0.00 0.00 0.00 90 1013.2
20260510090930 74 175 0.0 0.0 0.00 0.00 0.00 89 1013.1
20260510090426 74 170 0.0 0.0 0.00 0.00 0.00 89 1012.8
20260510085922 74 28 0.0 0.0 0.00 0.00 0.00 89 1012.5
20260510085418 73 177 0.0 0.0 0.00 0.00 0.00 89 1012.2
20260510084913 73 181 0.0 0.0 0.00 0.00 0.00 89 1011.9
20260510084411 73 180 0.0 0.0 0.00 0.00 0.00 89 1012.1
20260510083907 73 174 0.0 0.0 0.00 0.00 0.00 89 1012.2
20260510083403 72 170 0.0 0.0 0.00 0.00 0.00 89 1012.1
20260510082859 72 170 0.0 0.0 0.00 0.00 0.00 89 1012.1
20260510082357 72 170 0.0 0.0 0.00 0.00 0.00 89 1012.1
20260510081855 72 170 0.0 0.0 0.00 0.00 0.00 89 1011.6
20260510081351 72 170 0.0 0.0 0.00 0.00 0.00 88 1011.4
20260510080849 72 170 0.0 0.0 0.00 0.00 0.00 88 1011.1
20260510080342 72 170 0.0 0.0 0.00 0.00 0.00 87 1011.3
20260510075839 73 170 0.0 0.0 0.00 0.00 0.00 87 1011.1
20260510075337 73 170 0.0 0.0 0.00 0.00 0.00 87 1011.1
20260510074828 73 170 0.0 0.0 0.00 0.00 0.00 86 1011.0
20260510074326 73 170 0.0 0.0 0.00 0.00 0.00 86 1010.9
20260510073821 73 170 0.0 0.0 0.00 0.00 0.00 85 1010.7
20260510073312 73 170 0.0 0.0 0.00 0.00 0.00 85 1010.7
20260510072808 74 170 0.0 0.0 0.00 0.00 0.00 85 1010.5
20260510072306 74 170 0.0 0.0 0.00 0.00 0.00 84 1010.8
20260510071801 74 169 0.0 0.0 0.00 0.00 0.00 84 1011.0
20260510071257 74 167 0.0 0.0 0.00 0.00 0.00 84 1011.1
20260510070756 74 173 0.0 0.0 0.00 0.00 0.00 83 1011.0
20260510070252 74 182 0.0 0.0 0.00 0.00 0.00 83 1011.2
20260510065746 74 182 0.0 0.0 0.00 0.00 0.00 83 1011.5
20260510065243 74 116 0.0 0.0 0.00 0.00 0.00 83 1011.6
20260510064739 74 172 0.0 0.0 0.00 0.00 0.00 83 1011.5
20260510064238 75 160 0.0 0.0 0.00 0.00 0.00 82 1011.3
20260510063733 75 166 0.0 0.0 0.00 0.00 0.00 82 1011.5
20260510063230 75 166 0.0 0.0 0.00 0.00 0.00 81 1011.7
20260510062727 75 153 0.0 0.0 0.00 0.00 0.00 80 1011.7
20260510062223 75 150 0.0 0.0 0.00 0.00 0.00 80 1011.0
20260510061718 76 180 0.0 0.0 0.00 0.00 0.00 79 1010.7
20260510061216 76 189 0.0 0.0 0.00 0.00 0.00 79 1010.2
20260510060712 76 185 0.0 0.0 0.00 0.00 0.00 79 1010.2
20260510060208 76 96 0.0 0.0 0.00 0.00 0.00 79 1009.9
20260510055705 75 99 0.0 0.0 0.00 0.00 0.00 79 1009.7
20260510055203 75 161 0.0 0.0 0.00 0.00 0.00 78 1009.7
20260510054658 75 164 0.0 0.0 0.00 0.00 0.00 78 1009.9
20260510054154 75 189 0.0 0.0 0.00 0.00 0.00 78 1009.8
20260510053653 76 171 0.0 0.0 0.00 0.00 0.00 78 1009.9
20260510053151 76 171 0.0 0.0 0.00 0.00 0.00 78 1009.9
20260510052646 76 174 1.0 1.0 0.00 0.00 0.00 78 1009.8
20260510052142 76 181 0.0 0.0 0.00 0.00 0.00 77 1009.7
20260510051638 76 194 0.0 0.0 0.00 0.00 0.00 77 1009.7
20260510051135 76 180 0.0 0.0 0.00 0.00 0.00 77 1009.5
20260510050632 76 182 0.0 0.0 0.00 0.00 0.00 76 1009.6
20260510050130 76 184 1.0 1.0 0.00 0.00 0.00 76 1009.4
20260510045626 77 181 0.0 0.0 0.00 0.00 0.00 75 1009.3
20260510045122 77 180 0.0 0.0 0.00 0.00 0.00 74 1009.2
20260510044619 77 186 0.0 0.0 0.00 0.00 0.00 73 1009.3
20260510044116 77 207 0.0 1.0 0.00 0.00 0.00 72 1009.1
20260510043612 76 194 0.0 0.0 0.00 0.00 0.00 71 1009.2
20260510043108 76 183 0.0 0.0 0.00 0.00 0.00 71 1009.5
20260510042607 76 175 0.0 0.0 0.00 0.00 0.00 71 1009.2
20260510042102 76 177 0.0 0.0 0.00 0.00 0.00 72 1009.3
20260510041600 76 178 0.0 0.0 0.00 0.00 0.00 70 1009.3
20260510041057 76 180 0.0 0.0 0.00 0.00 0.00 71 1009.7
20260510040554 76 181 0.0 0.0 0.00 0.00 0.00 71 1009.4
20260510040049 77 191 0.0 0.0 0.00 0.00 0.00 71 1009.4
20260510035546 76 190 0.0 0.0 0.00 0.00 0.00 71 1009.5
20260510035045 76 184 0.0 0.0 0.00 0.00 0.00 72 1009.6
20260510034544 77 184 0.0 0.0 0.00 0.00 0.00 72 1009.5
20260510034041 77 184 0.0 0.0 0.00 0.00 0.00 71 1009.4
20260510033536 77 184 0.0 0.0 0.00 0.00 0.00 71 1009.6
20260510033035 77 190 0.0 0.0 0.00 0.00 0.00 70 1009.5
20260510032531 77 190 0.0 0.0 0.00 0.00 0.00 70 1009.5
20260510032026 78 191 0.0 0.0 0.00 0.00 0.00 69 1009.7
20260510031521 78 191 0.0 0.0 0.00 0.00 0.00 68 1009.6
20260510031017 78 179 0.0 0.0 0.00 0.00 0.00 68 1009.7
20260510030513 78 183 0.0 0.0 0.00 0.00 0.00 68 1009.6
20260510030011 78 179 0.0 0.0 0.00 0.00 0.00 67 1009.8
20260510025508 78 184 0.0 0.0 0.00 0.00 0.00 67 1009.6
20260510025005 78 188 0.0 0.0 0.00 0.00 0.00 67 1009.4
20260510024502 78 185 0.0 0.0 0.00 0.00 0.00 68 1009.5
20260510023958 78 182 0.0 0.0 0.00 0.00 0.00 68 1009.3
20260510023454 78 184 0.0 0.0 0.00 0.00 0.00 68 1009.3
20260510022951 77 185 0.0 0.0 0.00 0.00 0.00 68 1009.4
20260510022450 77 179 0.0 0.0 0.00 0.00 0.00 69 1009.3
20260510021949 77 177 0.0 0.0 0.00 0.00 0.00 69 1009.1
20260510021448 77 179 0.0 0.0 0.00 0.00 0.00 70 1009.1
20260510020944 76 186 0.0 0.0 0.00 0.00 0.00 69 1009.0
20260510020438 76 172 0.0 0.0 0.00 0.00 0.00 69 1009.1
20260510015935 76 172 0.0 0.0 0.00 0.00 0.00 69 1009.2
20260510015431 77 172 0.0 0.0 0.00 0.00 0.00 69 1008.9
20260510014926 77 172 0.0 0.0 0.00 0.00 0.00 68 1008.9
20260510014424 77 172 0.0 0.0 0.00 0.00 0.00 66 1008.7
20260510013920 77 172 0.0 0.0 0.00 0.00 0.00 65 1008.7
20260510013414 78 172 0.0 0.0 0.00 0.00 0.00 65 1008.8
20260510012910 78 172 0.0 0.0 0.00 0.00 0.00 65 1008.7
20260510012406 78 172 0.0 0.0 0.00 0.00 0.00 64 1008.7
20260510011900 79 172 0.0 0.0 0.00 0.00 0.00 63 1008.4
20260510011356 79 172 0.0 0.0 0.00 0.00 0.00 63 1008.4
20260510010852 80 172 0.0 0.0 0.00 0.00 0.00 62 1008.2
20260510010349 80 172 0.0 0.0 0.00 0.00 0.00 62 1008.1
20260510005846 80 171 0.0 0.0 0.00 0.00 0.00 61 1008.2
20260510005342 81 169 0.0 0.0 0.00 0.00 0.00 60 1007.9
20260510004840 81 169 0.0 0.0 0.00 0.00 0.00 61 1008.2
20260510004337 82 169 0.0 0.0 0.00 0.00 0.00 59 1008.3
20260510003835 82 169 0.0 0.0 0.00 0.00 0.00 58 1008.2
20260510003332 83 142 0.0 0.0 0.00 0.00 0.00 57 1008.1
20260510002830 83 134 0.0 0.0 0.00 0.00 0.00 54 1008.2
20260510002328 84 160 0.0 0.0 0.00 0.00 0.00 54 1008.0
20260510001824 84 164 0.0 0.0 0.00 0.00 0.00 55 1008.2
20260510001323 84 154 0.0 0.0 0.00 0.00 0.00 54 1008.1
20260510000818 84 171 0.0 0.0 0.00 0.00 0.00 55 1008.2
20260510000318 84 166 0.0 0.0 0.00 0.00 0.00 54 1008.2
20260509235813 84 173 0.0 0.0 0.00 0.00 0.00 54 1008.0
20260509235309 85 180 0.0 0.0 0.00 0.00 0.00 54 1008.2
20260509234805 85 181 0.0 0.0 0.00 0.00 0.00 53 1008.2
20260509234302 85 177 0.0 0.0 0.00 0.00 0.00 52 1008.0
20260509233800 85 190 0.0 0.0 0.00 0.00 0.00 53 1008.0
20260509233257 85 189 0.0 0.0 0.00 0.00 0.00 53 1008.0
20260509232753 85 256 0.0 0.0 0.00 0.00 0.00 54 1008.0
20260509232251 85 148 0.0 0.0 0.00 0.00 0.00 52 1008.1
20260509231747 85 207 0.0 0.0 0.00 0.00 0.00 52 1008.1
20260509231244 85 168 0.0 0.0 0.00 0.00 0.00 54 1008.0
20260509230741 85 3 0.0 1.0 0.00 0.00 0.00 53 1008.2
20260509230238 86 181 0.0 0.0 0.00 0.00 0.00 53 1008.1
20260509225733 85 176 0.0 0.0 0.00 0.00 0.00 52 1007.9
20260509225230 86 169 0.0 0.0 0.00 0.00 0.00 54 1008.1
20260509224725 86 148 0.0 0.0 0.00 0.00 0.00 53 1008.2
20260509224223 86 187 0.0 0.0 0.00 0.00 0.00 54 1008.2
20260509223719 86 95 0.0 0.0 0.00 0.00 0.00 52 1008.0
20260509223217 86 200 0.0 0.0 0.00 0.00 0.00 53 1008.0
20260509222713 86 201 0.0 0.0 0.00 0.00 0.00 54 1008.0
20260509222209 86 181 0.0 1.0 0.00 0.00 0.00 52 1008.1
20260509221705 86 167 0.0 0.0 0.00 0.00 0.00 53 1007.8
20260509221201 86 158 0.0 0.0 0.00 0.00 0.00 56 1007.8
20260509220658 86 176 0.0 0.0 0.00 0.00 0.00 54 1008.0
20260509220154 86 185 1.0 2.0 0.00 0.00 0.00 53 1008.0
20260509215650 86 321 0.0 1.0 0.00 0.00 0.00 54 1008.0
20260509215147 86 184 0.0 1.0 0.00 0.00 0.00 55 1008.1
20260509214644 86 188 0.0 0.0 0.00 0.00 0.00 54 1008.1
20260509214141 86 84 1.0 1.0 0.00 0.00 0.00 54 1008.2
20260509213638 86 117 0.0 0.0 0.00 0.00 0.00 55 1008.3
20260509213133 86 176 0.0 0.0 0.00 0.00 0.00 56 1008.3
20260509212631 86 93 2.0 2.0 0.00 0.00 0.00 57 1008.3
20260509212128 86 186 0.0 0.0 0.00 0.00 0.00 61 1008.5
20260509211624 86 174 1.0 2.0 0.00 0.00 0.00 61 1008.7
20260509211120 86 174 0.0 0.0 0.00 0.00 0.00 58 1008.7
20260509210617 86 171 0.0 0.0 0.00 0.00 0.00 62 1008.5
20260509210114 86 185 0.0 0.0 0.00 0.00 0.00 62 1008.7
20260509205614 86 191 0.0 0.0 0.00 0.00 0.00 60 1008.7
20260509205104 86 201 0.0 0.0 0.00 0.00 0.00 61 1008.9
20260509204600 86 229 0.0 0.0 0.00 0.00 0.00 64 1009.1
20260509204057 86 185 0.0 0.0 0.00 0.00 0.00 63 1009.1
20260509203552 86 26 1.0 1.0 0.00 0.00 0.00 61 1009.3
20260509203051 86 170 0.0 0.0 0.00 0.00 0.00 64 1009.2
20260509202545 85 198 0.0 0.0 0.00 0.00 0.00 66 1009.4
20260509202040 85 176 1.0 1.0 0.00 0.00 0.00 66 1009.4
20260509201535 86 180 0.0 1.0 0.00 0.00 0.00 64 1009.3
20260509201034 85 97 1.0 2.0 0.00 0.00 0.00 62 1009.4
20260509200527 85 190 0.0 0.0 0.00 0.00 0.00 60 1009.4
20260509200024 85 184 0.0 0.0 0.00 0.00 0.00 62 1009.4
20260509195519 86 36 1.0 1.0 0.00 0.00 0.00 59 1009.5
20260509195014 86 199 2.0 2.0 0.00 0.00 0.00 60 1009.4
20260509194509 86 189 0.0 0.0 0.00 0.00 0.00 60 1009.5
20260509194006 86 197 0.0 0.0 0.00 0.00 0.00 61 1009.6
20260509193501 86 56 0.0 1.0 0.00 0.00 0.00 60 1009.6
20260509192957 86 138 0.0 1.0 0.00 0.00 0.00 61 1009.5
20260509192454 86 172 0.0 0.0 0.00 0.00 0.00 63 1009.7
20260509191949 85 182 0.0 0.0 0.00 0.00 0.00 61 1009.6
20260509191444 85 188 0.0 0.0 0.00 0.00 0.00 64 1009.7
20260509190940 85 225 0.0 0.0 0.00 0.00 0.00 64 1009.9
20260509190438 86 192 0.0 0.0 0.00 0.00 0.00 63 1009.8
20260509185936 85 184 0.0 0.0 0.00 0.00 0.00 64 1010.0
20260509185433 85 182 0.0 0.0 0.00 0.00 0.00 65 1009.9
20260509184929 84 199 0.0 0.0 0.00 0.00 0.00 65 1009.9
20260509184427 84 182 0.0 0.0 0.00 0.00 0.00 64 1010.0
20260509183923 84 212 0.0 1.0 0.00 0.00 0.00 65 1009.9
20260509183422 84 200 0.0 0.0 0.00 0.00 0.00 66 1009.9
20260509182920 84 205 0.0 0.0 0.00 0.00 0.00 65 1009.8
20260509182416 84 190 0.0 0.0 0.00 0.00 0.00 65 1009.7
20260509181914 84 199 0.0 0.0 0.00 0.00 0.00 66 1010.3
20260509181411 84 172 0.0 0.0 0.00 0.00 0.00 66 1010.2
20260509180908 84 202 0.0 0.0 0.00 0.00 0.00 67 1010.3
20260509180403 84 170 0.0 0.0 0.00 0.00 0.00 67 1010.1
20260509175901 83 169 0.0 0.0 0.00 0.00 0.00 68 1010.3
20260509175357 83 184 1.0 1.0 0.00 0.00 0.00 66 1010.5
20260509174853 83 203 0.0 0.0 0.00 0.00 0.00 69 1010.5
20260509174344 82 183 0.0 0.0 0.00 0.00 0.00 70 1010.6
20260509173840 82 204 0.0 0.0 0.00 0.00 0.00 70 1010.7
20260509173335 82 211 0.0 0.0 0.00 0.00 0.00 69 1010.5
20260509172832 82 183 0.0 0.0 0.00 0.00 0.00 70 1010.7
20260509172329 82 204 0.0 0.0 0.00 0.00 0.00 70 1010.6
20260509171825 82 188 0.0 0.0 0.00 0.00 0.00 72 1010.6
20260509171320 82 215 0.0 0.0 0.00 0.00 0.00 70 1010.7
20260509170817 82 192 0.0 0.0 0.00 0.00 0.00 70 1010.8
20260509170313 82 129 1.0 2.0 0.00 0.00 0.00 71 1010.9
20260509165813 81 179 0.0 0.0 0.00 0.00 0.00 72 1010.6
20260509165307 81 191 0.0 0.0 0.00 0.00 0.00 72 1010.8
20260509164803 81 170 0.0 0.0 0.00 0.00 0.00 71 1010.9
20260509164259 81 185 0.0 0.0 0.00 0.00 0.00 71 1011.1
20260509163756 81 183 0.0 0.0 0.00 0.00 0.00 73 1011.0
20260509163252 81 176 0.0 0.0 0.00 0.00 0.00 73 1010.8
20260509162751 81 186 0.0 0.0 0.00 0.00 0.00 76 1010.8
20260509162245 80 196 1.0 1.0 0.00 0.00 0.00 74 1010.8
20260509161742 80 184 0.0 1.0 0.00 0.00 0.00 72 1010.8
20260509161237 80 183 0.0 0.0 0.00 0.00 0.00 73 1010.9
20260509160732 80 183 0.0 0.0 0.00 0.00 0.00 75 1010.8
20260509160229 80 189 0.0 0.0 0.00 0.00 0.00 74 1010.9
20260509155724 80 189 0.0 0.0 0.00 0.00 0.00 72 1010.9
20260509155221 79 169 0.0 1.0 0.00 0.00 0.00 73 1010.8
20260509154718 80 185 1.0 1.0 0.00 0.00 0.00 75 1010.7
20260509154214 79 164 0.0 0.0 0.00 0.00 0.00 75 1010.7
20260509153711 79 141 1.0 1.0 0.00 0.00 0.00 74 1010.7
20260509153208 78 168 0.0 0.0 0.00 0.00 0.00 75 1010.7
20260509152704 78 169 0.0 0.0 0.00 0.00 0.00 77 1010.5
20260509152200 78 156 0.0 1.0 0.00 0.00 0.00 78 1010.6
20260509151657 77 169 0.0 0.0 0.00 0.00 0.00 77 1010.6
20260509151154 77 176 0.0 0.0 0.00 0.00 0.00 79 1010.5
20260509150652 77 186 0.0 0.0 0.00 0.00 0.00 78 1010.6
20260509150150 77 192 0.0 0.0 0.00 0.00 0.00 80 1010.6
20260509145646 76 175 0.0 0.0 0.00 0.00 0.00 80 1010.8
20260509145141 76 193 0.0 0.0 0.00 0.00 0.00 82 1010.8
20260509144638 76 183 0.0 0.0 0.00 0.00 0.00 81 1010.9
20260509144136 76 188 0.0 0.0 0.00 0.00 0.00 82 1010.9
20260509143633 75 82 0.0 0.0 0.00 0.00 0.00 84 1010.8
20260509143130 75 175 0.0 0.0 0.00 0.00 0.00 83 1010.8
20260509142625 75 172 0.0 0.0 0.00 0.00 0.00 83 1010.9
20260509142122 75 184 0.0 0.0 0.00 0.00 0.00 84 1010.6
20260509141618 74 189 0.0 0.0 0.00 0.00 0.00 85 1010.7
20260509141115 74 199 0.0 0.0 0.00 0.00 0.00 86 1010.6
20260509140612 73 187 0.0 0.0 0.00 0.00 0.00 87 1010.7
20260509140110 73 168 0.0 0.0 0.00 0.00 0.00 87 1010.6
20260509135607 73 185 0.0 0.0 0.00 0.00 0.00 89 1010.6
20260509135105 73 183 0.0 0.0 0.00 0.00 0.00 90 1010.9
20260509134601 72 178 0.0 0.0 0.00 0.00 0.00 90 1010.5
20260509134059 71 165 0.0 0.0 0.00 0.00 0.00 90 1010.4
20260509133555 71 184 0.0 0.0 0.00 0.00 0.00 91 1010.4
20260509133053 71 161 0.0 0.0 0.00 0.00 0.00 91 1010.5
20260509132551 70 179 0.0 0.0 0.00 0.00 0.00 92 1010.5
20260509132049 70 183 0.0 0.0 0.00 0.00 0.00 93 1010.3
20260509131545 69 184 0.0 0.0 0.00 0.00 0.00 94 1010.4
20260509131042 69 181 0.0 0.0 0.00 0.00 0.00 95 1010.4
20260509130537 69 178 0.0 0.0 0.00 0.00 0.00 95 1010.3
20260509130035 69 177 0.0 0.0 0.00 0.00 0.00 96 1010.0
20260509125531 69 169 0.0 0.0 0.00 0.00 0.00 96 1010.3
20260509125027 69 181 0.0 0.0 0.00 0.00 0.00 96 1010.5
20260509124519 68 177 0.0 0.0 0.00 0.00 0.00 97 1010.3
20260509124016 68 174 0.0 0.0 0.00 0.00 0.00 97 1010.4
20260509123514 68 176 0.0 0.0 0.00 0.00 0.00 97 1010.3
20260509123009 68 177 0.0 0.0 0.00 0.00 0.00 97 1010.0
20260509122506 68 177 0.0 0.0 0.00 0.00 0.00 97 1010.4
20260509122003 68 177 0.0 0.0 0.00 0.00 0.00 97 1010.4
20260509121459 68 177 0.0 0.0 0.00 0.00 0.00 97 1010.4
20260509120958 68 177 0.0 0.0 0.00 0.00 0.00 97 1010.3
20260509120455 68 177 0.0 0.0 0.00 0.00 0.00 97 1010.1
20260509115953 68 177 0.0 0.0 0.00 0.00 0.00 96 1010.4
20260509115450 68 178 0.0 0.0 0.00 0.00 0.00 96 1009.9
20260509114948 68 178 0.0 0.0 0.00 0.00 0.00 96 1009.8
20260509114446 68 178 0.0 0.0 0.00 0.00 0.00 96 1009.7
20260509113945 68 178 0.0 0.0 0.00 0.00 0.00 96 1009.5
20260509113442 68 178 0.0 0.0 0.00 0.00 0.00 96 1009.7
20260509112939 68 174 0.0 0.0 0.00 0.00 0.00 96 1009.7
20260509112437 68 174 0.0 0.0 0.00 0.00 0.00 96 1009.7
20260509111933 68 173 0.0 0.0 0.00 0.00 0.00 96 1009.3
20260509111431 69 173 0.0 0.0 0.00 0.00 0.00 96 1009.4
20260509110928 69 173 0.0 0.0 0.00 0.00 0.00 96 1009.3
20260509110424 69 174 0.0 0.0 0.00 0.00 0.00 96 1009.2
20260509105922 69 175 0.0 0.0 0.00 0.00 0.00 96 1009.3
20260509105420 69 175 0.0 0.0 0.00 0.00 0.00 96 1009.4
20260509104917 69 175 0.0 0.0 0.00 0.00 0.00 95 1009.2
20260509104413 69 175 0.0 0.0 0.00 0.00 0.00 95 1009.5
20260509103911 70 175 0.0 0.0 0.00 0.00 0.00 95 1009.4
20260509103408 69 175 0.0 0.0 0.00 0.00 0.00 95 1009.2
20260509102906 70 175 0.0 0.0 0.00 0.00 0.00 95 1009.3
20260509102403 70 175 0.0 0.0 0.00 0.00 0.00 95 1009.3